SCP
0 0 0 0 0 0 0 0 0 0 0 0 0 0 0 0 0 0 0 0 0 0 0 0 0 0 0
0 0 0 0 0 0 0 0 0 0 0 0 0 0 0 0 0 0 0 0 0 0 0 0 0 0 0
0 0 0 0 0 0 0 0 0 0 0 0 0 0 0 0 0 0 0 0 0 0 0 0 0 0 0
0 0 0 0 0 0 0 0 0 0 0 0 0 0 0 0 0 0 0 0 0 0 0 0 0 0 0
0 0 0 0 0 0 0 0 0 0 0 0 0 0 0 0 0 0 0 0 0 0 0 0 0 0 0
0 0 0 0 0 0 0 0 0 0 0 0 0 0 0 0 0 0 0 0 0 0 0 0 0 0 0
0 0 0 0 0 0 0 0 0 0 0 0 0 0 0 0 0 0 0 0 0 0 0 0 0 0 0
0 0 0 0 0 0 0 0 0 0 0 0 0 0 0 0 0 0 0 0 0 0 0 0 0 0 0
0 0 0 0 0 0 0 0 0 0 0 0 0 0 0 0 0 0 0 0 0 0 0 0 0 0 0
0 0 0 0 0 0 0 0 0 0 0 0 0 0 0 0 0 0 0 0 0 0 0 0 0 0 0
0 0 0 0 0 0 0 0 0 0 0 0 0 0 0 0 0 0 0 0 0 0 0 0 0 0 0
0 0 0 0 0 0 0 0 0 0 0 0 0 0 0 0 0 0 0 0 0 0 0 0 0 0 0
0 0 0 0 0 0 0 0 0 0 0 0 0 0 0 0 0 0 0 0 0 0 0 0 0 0 0
0 0 0 0 0 0 0 0 0 0 0 0 0 0 0 0 0 0 0 0 0 0 0 0 0 0 -0
0 0 0 0 0 0 0 0 0 0 0 0 0 0 0 0 0 0 0 0 0 0 0 0 0 0 -0
0 0 0 0 0 0 0 0 0 0 0 0 0 0 0 0 0 0 0 0 0 0 0 0 0 -0 0
Wind_Speed_500mb
19 20 24 27 31 36 41 45 50 53 58 64 69 74 72 68 69 70 67 67 65 61 62 65 63 69 67
16 19 23 26 30 34 39 43 47 54 60 65 72 73 72 72 72 71 69 68 68 71 67 64 66 67 60
16 20 22 27 29 32 38 44 51 57 63 68 73 76 75 75 71 69 68 69 69 70 75 72 71 64 69
16 19 23 26 29 33 39 44 51 59 65 69 72 75 75 75 79 77 77 77 77 76 74 75 69 71 69
15 19 23 25 29 35 40 47 54 60 66 71 76 79 81 82 81 79 82 80 77 74 74 72 67 70 70
15 19 21 24 29 35 41 48 54 61 67 72 75 78 78 78 80 80 80 79 76 71 70 69 66 66 62
15 18 21 24 29 35 41 48 56 62 66 70 73 77 75 76 76 78 77 77 74 72 70 68 66 60 50
14 17 20 24 29 35 41 48 55 61 66 69 72 74 73 73 73 74 72 73 71 70 71 69 59 48 43
13 16 19 23 29 35 40 47 55 60 64 67 71 72 72 72 71 72 71 71 70 67 72 68 54 47 45
13 16 19 23 27 33 39 47 54 58 63 66 69 70 69 68 67 69 72 73 68 67 82 69 54 46 47
13 15 18 22 26 32 38 45 52 57 62 64 66 69 67 65 65 68 67 69 63 69 85 70 52 41 56
14 15 17 21 25 31 37 43 52 57 60 62 66 66 65 62 61 65 66 66 57 70 80 72 44 39 35
15 15 17 20 23 28 35 44 51 56 58 61 63 64 63 59 57 59 63 66 64 71 77 78 48 44 51
17 14 15 17 19 25 33 42 48 53 57 58 59 60 59 57 56 57 61 65 62 61 63 63 52 52 90
20 16 16 16 19 24 30 38 46 51 51 52 55 57 55 54 53 53 54 56 60 55 53 50 40 39 91
24 18 16 15 17 22 29 38 43 46 49 51 52 54 52 50 49 49 49 50 53 54 59 51 43 49 56
Wind_Direction_500mb
17 12 12 12 9 9 7 6 6 3 360 358 357 352 349 349 348 344 341 338 333 328 322 321 316 309 312
9 8 10 11 12 7 4 4 4 1 359 358 356 350 353 352 349 346 344 338 334 331 331 326 323 317 312
6 6 6 12 9 4 3 3 3 360 359 358 354 353 353 349 348 347 345 342 339 338 334 331 327 319 311
360 360 8 7 3 1 2 2 1 359 358 357 352 352 352 351 352 350 350 348 348 343 337 331 325 320 313
353 355 3 1 359 359 358 1 0 358 357 355 354 354 354 353 353 351 349 348 346 343 338 331 322 321 315
344 356 355 356 356 356 357 360 358 357 357 356 355 354 353 354 352 350 348 346 345 343 337 331 325 324 323
345 350 352 351 353 353 357 357 357 356 356 355 355 353 352 351 352 348 348 346 343 342 339 335 329 332 327
344 341 346 348 348 350 355 355 355 355 354 354 354 350 352 350 352 349 346 347 342 343 342 338 333 332 341
332 335 341 344 345 349 351 353 353 353 353 353 353 350 350 351 351 350 346 347 344 341 342 341 336 334 330
319 331 334 339 340 344 348 351 351 352 352 354 351 349 350 349 352 352 351 347 346 341 343 344 334 348 347
307 321 328 332 335 340 345 348 349 352 353 352 351 350 349 350 353 352 354 350 345 342 345 344 338 334 350
293 310 321 326 329 338 342 345 350 352 354 351 353 349 349 352 353 353 352 354 350 346 348 340 338 337 342
276 298 314 317 327 332 337 347 350 352 352 353 353 350 349 353 354 353 351 356 357 356 352 353 340 348 342
256 282 295 304 317 329 341 346 349 352 354 352 352 351 350 352 353 353 355 357 360 0 354 348 347 349 347
247 267 285 302 318 331 338 344 352 354 350 350 355 352 352 354 353 354 354 359 357 3 8 1 345 341 335
241 259 279 296 309 323 339 348 352 351 350 354 357 354 352 355 353 353 354 356 359 357 4 4 354 344 338
Wind_Speed_850mb
19 20 24 27 31 36 41 45 50 53 58 64 69 74 72 68 69 70 67 67 65 61 62 65 63 69 67
16 19 23 26 30 34 39 43 47 54 60 65 72 73 72 72 72 71 69 68 68 71 67 64 66 67 60
16 20 22 27 29 32 38 44 51 57 63 68 73 76 75 75 71 69 68 69 69 70 75 72 71 64 69
16 19 23 26 29 33 39 44 51 59 65 69 72 75 75 75 79 77 77 77 77 76 74 75 69 71 69
15 19 23 25 29 35 40 47 54 60 66 71 76 79 81 82 81 79 82 80 77 74 74 72 67 70 70
15 19 21 24 29 35 41 48 54 61 67 72 75 78 78 78 80 80 80 79 76 71 70 69 66 66 62
15 18 21 24 29 35 41 48 56 62 66 70 73 77 75 76 76 78 77 77 74 72 70 68 66 60 50
14 17 20 24 29 35 41 48 55 61 66 69 72 74 73 73 73 74 72 73 71 70 71 69 59 48 43
13 16 19 23 29 35 40 47 55 60 64 67 71 72 72 72 71 72 71 71 70 67 72 68 54 47 45
13 16 19 23 27 33 39 47 54 58 63 66 69 70 69 68 67 69 72 73 68 67 82 69 54 46 47
13 15 18 22 26 32 38 45 52 57 62 64 66 69 67 65 65 68 67 69 63 69 85 70 52 41 56
14 15 17 21 25 31 37 43 52 57 60 62 66 66 65 62 61 65 66 66 57 70 80 72 44 39 35
15 15 17 20 23 28 35 44 51 56 58 61 63 64 63 59 57 59 63 66 64 71 77 78 48 44 51
17 14 15 17 19 25 33 42 48 53 57 58 59 60 59 57 56 57 61 65 62 61 63 63 52 52 90
20 16 16 16 19 24 30 38 46 51 51 52 55 57 55 54 53 53 54 56 60 55 53 50 40 39 91
24 18 16 15 17 22 29 38 43 46 49 51 52 54 52 50 49 49 49 50 53 54 59 51 43 49 56
Wind_Direction_850mb
17 12 12 12 9 9 7 6 6 3 360 358 357 352 349 349 348 344 341 338 333 328 322 321 316 309 312
9 8 10 11 12 7 4 4 4 1 359 358 356 350 353 352 349 346 344 338 334 331 331 326 323 317 312
6 6 6 12 9 4 3 3 3 360 359 358 354 353 353 349 348 347 345 342 339 338 334 331 327 319 311
360 360 8 7 3 1 2 2 1 359 358 357 352 352 352 351 352 350 350 348 348 343 337 331 325 320 313
353 355 3 1 359 359 358 1 0 358 357 355 354 354 354 353 353 351 349 348 346 343 338 331 322 321 315
344 356 355 356 356 356 357 360 358 357 357 356 355 354 353 354 352 350 348 346 345 343 337 331 325 324 323
345 350 352 351 353 353 357 357 357 356 356 355 355 353 352 351 352 348 348 346 343 342 339 335 329 332 327
344 341 346 348 348 350 355 355 355 355 354 354 354 350 352 350 352 349 346 347 342 343 342 338 333 332 341
332 335 341 344 345 349 351 353 353 353 353 353 353 350 350 351 351 350 346 347 344 341 342 341 336 334 330
319 331 334 339 340 344 348 351 351 352 352 354 351 349 350 349 352 352 351 347 346 341 343 344 334 348 347
307 321 328 332 335 340 345 348 349 352 353 352 351 350 349 350 353 352 354 350 345 342 345 344 338 334 350
293 310 321 326 329 338 342 345 350 352 354 351 353 349 349 352 353 353 352 354 350 346 348 340 338 337 342
276 298 314 317 327 332 337 347 350 352 352 353 353 350 349 353 354 353 351 356 357 356 352 353 340 348 342
256 282 295 304 317 329 341 346 349 352 354 352 352 351 350 352 353 353 355 357 360 0 354 348 347 349 347
247 267 285 302 318 331 338 344 352 354 350 350 355 352 352 354 353 354 354 359 357 3 8 1 345 341 335
241 259 279 296 309 323 339 348 352 351 350 354 357 354 352 355 353 353 354 356 359 357 4 4 354 344 338